JH0KSP-13 Weather Reports


Display with metric or nautical units.
time (UTC)temp
F
wind
direction
speed
MPH
gust
MPH
rain 1hr
in
rain 24hr
in
rain mn
in
humidity
%
barometer
mb
20260504150656 48 76 3.0 4.0 0.00 1.08 0.00 87 1012.0
20260504140657 50 340 0.0 4.0 0.00 1.81 1.08 79 1011.1
20260504130655 54 113 4.0 11.0 0.00 1.81 1.08 67 1010.2
20260504110656 54 225 7.0 14.0 0.00 1.81 1.08 65 1008.6
20260504080656 57 238 11.0 27.0 0.00 1.81 1.08 61 1006.3
20260504050655 68 242 11.0 26.0 0.00 1.81 1.08 47 1002.7
20260504044656 70 274 11.0 21.0 0.00 1.81 1.08 40 1002.6
20260504044009 70 222 8.0 14.0 0.00 1.81 1.08 39 1002.5
20260504042656 70 212 11.0 21.0 0.00 1.81 1.08 41 1002.6
20260504040656 70 177 6.0 19.0 0.00 1.81 1.08 41 1002.9
20260504034656 70 221 12.0 19.0 0.00 1.81 1.08 44 1002.9
20260504032657 70 172 9.0 19.0 0.00 1.81 1.08 44 1002.6
20260504030657 68 224 6.0 18.0 0.00 1.81 1.08 52 1003.0
20260504025008 68 243 3.0 21.0 0.00 1.81 1.08 52 1002.9
20260504024656 68 217 11.0 21.0 0.00 1.81 1.08 52 1002.7
20260504023009 68 269 12.0 18.0 0.00 1.81 1.08 56 1003.1
20260504022655 68 233 10.0 17.0 0.00 1.81 1.08 56 1002.7
20260504020656 68 339 5.0 12.0 0.00 1.81 1.08 60 1003.0
20260504014657 66 221 6.0 12.0 0.00 1.81 1.08 60 1003.1
20260504013009 68 297 4.0 8.0 0.00 1.81 1.08 62 1003.3
20260504012656 68 263 5.0 8.0 0.00 1.81 1.08 65 1003.5
20260504012009 68 291 1.0 5.0 0.00 1.81 1.08 63 1003.5
20260504010656 68 271 2.0 6.0 0.00 1.81 1.08 66 1003.3
20260504004655 66 239 5.0 14.0 0.00 1.81 1.08 70 1003.3
20260504002655 66 294 6.0 13.0 0.00 1.81 1.08 71 1003.2
20260504002008 66 276 5.0 8.0 0.00 1.81 1.08 77 1003.2
20260504000657 64 278 5.0 7.0 0.00 1.81 1.08 83 1003.3
20260503234655 63 267 6.0 7.0 0.00 1.81 1.08 87 1003.3
20260503232656 63 301 5.0 11.0 0.00 1.81 1.08 87 1003.6
20260503230655 64 267 7.0 9.0 0.00 1.81 1.08 88 1003.2
20260503230009 63 294 6.0 10.0 0.00 1.81 1.08 91 1003.0
20260503224656 63 295 7.0 9.0 0.00 1.81 1.08 94 1002.4
20260503223008 63 257 7.0 15.0 0.00 1.81 1.08 97 1002.1
20260503222657 63 252 7.0 15.0 0.00 1.81 1.08 97 1002.0
20260503220655 63 203 9.0 15.0 0.00 1.81 1.08 100 1001.6
20260503220009 63 236 10.0 22.0 0.00 1.81 1.08 100 1001.3
20260503214655 63 301 7.0 17.0 0.00 1.81 1.08 100 1000.9
20260503212656 63 226 4.0 9.0 0.00 1.81 1.08 100 1000.4
20260503210656 63 215 0.0 4.0 0.00 1.81 1.07 100 1000.0
20260503204655 63 231 3.0 10.0 0.00 1.81 1.05 100 1000.1
20260503202655 63 233 4.0 7.0 0.00 1.81 1.05 100 1000.0
20260503200657 63 218 2.0 6.0 0.00 1.81 1.04 100 999.7
20260503194657 63 233 4.0 8.0 0.00 1.81 0.99 100 999.2
20260503194008 63 294 5.0 9.0 0.00 1.81 0.96 100 999.2
20260503192656 61 322 4.0 13.0 0.00 1.81 0.92 100 999.0
20260503191008 61 229 4.0 11.0 0.00 1.81 0.88 100 999.1
20260503190655 61 328 8.0 11.0 0.00 1.81 0.87 100 999.1
20260503190008 61 259 7.0 14.0 0.00 1.81 0.83 100 999.1
20260503185010 61 298 7.0 11.0 0.00 1.81 0.82 100 998.9
20260503184656 61 285 7.0 10.0 0.00 1.81 0.82 100 999.0
20260503182657 61 293 6.0 9.0 0.00 1.81 0.75 100 999.0
20260503180657 61 316 8.0 11.0 0.00 1.81 0.61 100 999.4
20260503174656 59 316 3.0 11.0 0.00 1.81 0.53 100 999.8
20260503174009 59 242 5.0 11.0 0.00 1.81 0.52 100 1000.3
20260503172656 59 257 7.0 11.0 0.00 1.81 0.49 100 1000.4
20260503170655 59 301 6.0 9.0 0.00 1.81 0.40 100 1001.3